Glenwood, MN

10:35 AM CST on January 19, 2017 (GMT -0600)
Glenwood Municipal

Weather History for KGHW - March, 2014

Change the Weather History Date:

Saturday, March 22, 2014

  Actual Average Record
Temperature  
Mean Temperature 12 °F -  
Max Temperature 19 °F 41 °F 59 °F (2012)
Min Temperature 5 °F 21 °F -4 °F (1951)
Degree Days  
Heating Degree Days 53    
Moisture  
Dew Point 2 °F    
Average Humidity 67    
Maximum Humidity 79    
Minimum Humidity 53    
Precipitation  
Precipitation 0.00 in - - ()
Sea Level Pressure  
Sea Level Pressure 30.41 in    
Wind  
Wind Speed 16 mph (NW)    
Max Wind Speed 22 mph    
Max Gust Speed 30 mph    
Visibility 10 miles    
Events      
Averages and records for this station are not official NWS values.
T = Trace of Precipitation, MM = Missing Value Source: NWS Daily Summary

Daily Weather History Graph

Daily Weather History Graph

Search for Another Location

Airport or City:

Trip Planner

Search our weather history database for the weather conditions in past years. The results will help you decide how hot, cold, wet, or windy it might be!

Date:

Astronomy

Mar. 22, 2014 Rise Set
Actual Time 7:20 AM CDT 7:36 PM CDT
Civil Twilight 6:50 AM CDT 8:06 PM CDT
Nautical Twilight 6:15 AM CDT 8:41 PM CDT
Astronomical Twilight 5:40 AM CDT 9:17 PM CDT
Moon 1:10 AM CDT (3/22) 10:50 AM CDT (3/22)
Length of Visible Light 13h 15m
Length of Day
12h 16m
Waning Gibbous, 65% of the Moon is Illuminated
Mar 22
Waning Gibbous
Mar 23
Last Quarter
Mar 30
New
Apr 7
First Quarter
Apr 15
Full

Hourly Weather History & Observations

Time (CDT) Temp. Windchill Dew Point Humidity Pressure Visibility Wind Dir Wind Speed Gust Speed Precip Events Conditions
12:13 AM 10.4 °F -7.7 °F 3.2 °F 73% 30.26 in 10.0 mi NW 18.4 mph 25.3 mph N/A   Clear
12:33 AM 10.4 °F -9.1 °F 3.2 °F 73% 30.27 in 10.0 mi NW 21.9 mph 27.6 mph N/A   Clear
12:53 AM 10.4 °F -7.7 °F 3.2 °F 73% 30.27 in 10.0 mi NW 18.4 mph 26.5 mph N/A   Clear
1:13 AM 8.6 °F -10.0 °F 3.2 °F 79% 30.27 in 10.0 mi NW 18.4 mph 26.5 mph N/A   Clear
1:33 AM 8.6 °F -10.5 °F 1.4 °F 73% 30.28 in 10.0 mi NW 19.6 mph 25.3 mph N/A   Clear
1:53 AM 8.6 °F -11.0 °F 1.4 °F 73% 30.28 in 10.0 mi NW 20.7 mph 26.5 mph N/A   Clear
2:14 AM 8.6 °F -8.3 °F 1.4 °F 73% 30.29 in 10.0 mi NW 15.0 mph 21.9 mph N/A   Clear
2:33 AM 6.8 °F -12.4 °F 1.4 °F 79% 30.30 in 10.0 mi NW 18.4 mph - N/A   Clear
2:53 AM 6.8 °F -13.4 °F 1.4 °F 79% 30.31 in 10.0 mi NW 20.7 mph 25.3 mph N/A   Clear
3:13 AM 6.8 °F -12.9 °F -0.4 °F 72% 30.31 in 10.0 mi NW 19.6 mph 26.5 mph N/A   Clear
3:33 AM 6.8 °F -12.9 °F -0.4 °F 72% 30.31 in 10.0 mi NW 19.6 mph 25.3 mph N/A   Clear
3:53 AM 6.8 °F -10.7 °F -0.4 °F 72% 30.32 in 10.0 mi NNW 15.0 mph 18.4 mph N/A   Clear
4:13 AM 6.8 °F -9.3 °F -0.4 °F 72% 30.32 in 10.0 mi NNW 12.7 mph 20.7 mph N/A   Clear
4:34 AM 6.8 °F -12.4 °F -0.4 °F 72% 30.32 in 10.0 mi NNW 18.4 mph 25.3 mph N/A   Clear
4:53 AM 6.8 °F -10.0 °F -0.4 °F 72% 30.33 in 10.0 mi NW 13.8 mph - N/A   Clear
5:13 AM 6.8 °F -10.7 °F -0.4 °F 72% 30.34 in 10.0 mi NNW 15.0 mph - N/A   Clear
5:33 AM 6.8 °F -12.4 °F -2.2 °F 67% 30.34 in 10.0 mi NNW 18.4 mph 23.0 mph N/A   Clear
5:53 AM 6.8 °F -11.3 °F -2.2 °F 67% 30.35 in 10.0 mi NNW 16.1 mph 24.2 mph N/A   Clear
6:14 AM 6.8 °F -11.3 °F -2.2 °F 67% 30.37 in 10.0 mi NNW 16.1 mph 20.7 mph N/A   Clear
6:33 AM 6.8 °F -10.0 °F -2.2 °F 67% 30.37 in 10.0 mi NW 13.8 mph - N/A   Clear
6:53 AM 5.0 °F -14.2 °F -2.2 °F 72% 30.38 in 10.0 mi NW 17.3 mph 23.0 mph N/A   Clear
7:13 AM 5.0 °F -14.2 °F -2.2 °F 72% 30.38 in 10.0 mi NNW 17.3 mph - N/A   Clear
7:33 AM 5.0 °F -12.3 °F -2.2 °F 72% 30.39 in 10.0 mi NNW 13.8 mph 19.6 mph N/A   Clear
7:53 AM 6.8 °F -8.6 °F -2.2 °F 67% 30.40 in 10.0 mi NW 11.5 mph 17.3 mph N/A   Clear
8:13 AM 6.8 °F -7.8 °F -2.2 °F 67% 30.41 in 10.0 mi NW 10.4 mph 15.0 mph N/A   Clear
8:34 AM 6.8 °F -10.0 °F -2.2 °F 67% 30.41 in 10.0 mi NW 13.8 mph - N/A   Clear
8:53 AM 6.8 °F -10.7 °F -2.2 °F 67% 30.42 in 10.0 mi NNW 15.0 mph 20.7 mph N/A   Clear
9:13 AM 8.6 °F -8.3 °F -0.4 °F 67% 30.43 in 10.0 mi NW 15.0 mph - N/A   Clear
9:33 AM 8.6 °F -7.0 °F -0.4 °F 67% 30.43 in 10.0 mi NNW 12.7 mph 18.4 mph N/A   Clear
9:53 AM 8.6 °F -7.7 °F -0.4 °F 67% 30.43 in 10.0 mi NNW 13.8 mph 19.6 mph N/A   Clear
10:13 AM 10.4 °F -6.0 °F -0.4 °F 62% 30.44 in 10.0 mi NNW 15.0 mph - N/A   Clear
10:33 AM 10.4 °F -6.6 °F -0.4 °F 62% 30.44 in 10.0 mi NNW 16.1 mph - N/A   Clear
10:54 AM 12.2 °F -4.3 °F -0.4 °F 57% 30.44 in 10.0 mi NNW 16.1 mph 23.0 mph N/A   Clear
11:13 AM 12.2 °F -2.5 °F 1.4 °F 62% 30.45 in 10.0 mi NNW 12.7 mph 18.4 mph N/A   Clear
11:33 AM 14.0 °F -0.8 °F 1.4 °F 57% 30.45 in 10.0 mi NNW 13.8 mph - N/A   Clear
11:53 AM 14.0 °F -2.0 °F 1.4 °F 57% 30.45 in 10.0 mi NW 16.1 mph 23.0 mph N/A   Clear
12:13 PM 15.8 °F 0.3 °F 3.2 °F 58% 30.45 in 10.0 mi NW 16.1 mph - N/A   Clear
12:34 PM 15.8 °F 0.3 °F 3.2 °F 58% 30.45 in 10.0 mi NW 16.1 mph - N/A   Clear
12:53 PM 17.6 °F 3.2 °F 3.2 °F 53% 30.45 in 10.0 mi NW 15.0 mph 23.0 mph N/A   Clear
1:13 PM 17.6 °F 0.9 °F 3.2 °F 53% 30.45 in 10.0 mi NW 20.7 mph 29.9 mph N/A   Clear
1:33 PM 17.6 °F 1.7 °F 3.2 °F 53% 30.44 in 10.0 mi NW 18.4 mph 25.3 mph N/A   Clear
1:53 PM 17.6 °F 2.7 °F 5.0 °F 58% 30.44 in 10.0 mi NNW 16.1 mph 23.0 mph N/A   Scattered Clouds
2:14 PM 17.6 °F 2.7 °F 5.0 °F 58% 30.44 in 10.0 mi NW 16.1 mph 20.7 mph N/A   Mostly Cloudy
2:33 PM 19.4 °F 5.0 °F 5.0 °F 54% 30.44 in 10.0 mi NW 16.1 mph 23.0 mph N/A   Scattered Clouds
2:53 PM 19.4 °F 4.1 °F 6.8 °F 58% 30.43 in 10.0 mi NW 18.4 mph 25.3 mph N/A   Scattered Clouds
3:13 PM 19.4 °F 5.5 °F 5.0 °F 54% 30.43 in 10.0 mi WNW 15.0 mph 23.0 mph N/A   Scattered Clouds
3:33 PM 19.4 °F 6.6 °F 6.8 °F 58% 30.43 in 10.0 mi NNW 12.7 mph 24.2 mph N/A   Scattered Clouds
3:53 PM 17.6 °F 2.7 °F 5.0 °F 58% 30.43 in 10.0 mi WNW 16.1 mph 24.2 mph N/A   Scattered Clouds
4:13 PM 17.6 °F 2.2 °F 6.8 °F 63% 30.43 in 10.0 mi WNW 17.3 mph - N/A   Mostly Cloudy
4:34 PM 17.6 °F 1.3 °F 6.8 °F 63% 30.43 in 10.0 mi WNW 19.6 mph 24.2 mph N/A   Mostly Cloudy
4:53 PM 17.6 °F 2.7 °F 6.8 °F 63% 30.43 in 10.0 mi WNW 16.1 mph 23.0 mph N/A   Scattered Clouds
5:13 PM 19.4 °F 4.5 °F 6.8 °F 58% 30.43 in 10.0 mi NW 17.3 mph 24.2 mph N/A   Mostly Cloudy
5:33 PM 17.6 °F 1.7 °F 5.0 °F 58% 30.44 in 10.0 mi WNW 18.4 mph - N/A   Mostly Cloudy
5:53 PM 17.6 °F 3.2 °F 5.0 °F 58% 30.44 in 10.0 mi NW 15.0 mph 23.0 mph N/A   Scattered Clouds
6:13 PM 17.6 °F 3.7 °F 6.8 °F 63% 30.45 in 10.0 mi NW 13.8 mph 23.0 mph N/A   Scattered Clouds
6:33 PM 15.8 °F 1.4 °F 5.0 °F 62% 30.45 in 10.0 mi NW 13.8 mph - N/A   Scattered Clouds
6:53 PM 15.8 °F 0.3 °F 5.0 °F 62% 30.45 in 10.0 mi NW 16.1 mph - N/A   Clear
7:13 PM 14.0 °F -1.4 °F 3.2 °F 62% 30.46 in 10.0 mi NW 15.0 mph 19.6 mph N/A   Clear
7:34 PM 14.0 °F -0.2 °F 3.2 °F 62% 30.46 in 10.0 mi NW 12.7 mph 20.7 mph N/A   Clear
7:53 PM 12.2 °F -3.7 °F 3.2 °F 67% 30.46 in 10.0 mi WNW 15.0 mph 18.4 mph N/A   Clear
8:13 PM 12.2 °F -1.0 °F 3.2 °F 67% 30.47 in 10.0 mi NW 10.4 mph - N/A   Clear
8:33 PM 12.2 °F -1.0 °F 3.2 °F 67% 30.47 in 10.0 mi NW 10.4 mph - N/A   Clear
8:53 PM 12.2 °F -1.0 °F 3.2 °F 67% 30.48 in 10.0 mi NNW 10.4 mph - N/A   Clear
9:14 PM 10.4 °F -1.5 °F 3.2 °F 73% 30.48 in 10.0 mi NNW 8.1 mph - N/A   Clear
9:33 PM 10.4 °F -0.4 °F 3.2 °F 73% 30.48 in 10.0 mi NNW 6.9 mph - N/A   Clear
9:53 PM 10.4 °F 2.2 °F 3.2 °F 73% 30.48 in 10.0 mi North 4.6 mph - N/A   Clear
10:13 PM 8.6 °F 2.0 °F 3.2 °F 79% 30.48 in 10.0 mi North 3.5 mph - N/A   Clear
10:33 PM 8.6 °F 2.0 °F 3.2 °F 79% 30.48 in 10.0 mi North 3.5 mph - N/A   Clear
10:54 PM 8.6 °F - 3.2 °F 79% 30.49 in 10.0 mi Calm Calm - N/A   Clear
11:13 PM 8.6 °F - 3.2 °F 79% 30.49 in 10.0 mi Calm Calm - N/A   Clear
11:34 PM 8.6 °F - 3.2 °F 79% 30.49 in 10.0 mi Calm Calm - N/A   Clear
11:53 PM 8.6 °F - 3.2 °F 79% 30.49 in 10.0 mi Calm Calm - N/A   Clear